Location: Carri�res
(48.9069°N, 2.1792°E)
Time: 13:48:05
(UTC+00:00)

BREEZE-M DEB (TANK) - Pass Details

Date: 17 January 2021
Orbit: 310 x 13786 km, 49.6° (Epoch: 25 February)

Event Time Altitude Azimuth Distance (km) Brightness Sun altitude
Rises 18:44:38 0° 276° (W) 2,192 7.3 -22.3°
Reaches altitude 10° 18:46:30 10° 278° (W) 1,213 5.6 -22.6°
Enters shadow 18:47:29 23° 281° (WNW) 718 4.1 -22.8°
